Goldsboro, NC

12:26 AM EDT on June 24, 2017 (GMT -0400)
Seymour Johnson Air Force Base

Weather History for KGSB - November, 2012

Change the Weather History Date:

Wednesday, November 21, 2012

  Actual Average Record
Temperature  
Mean Temperature 50 °F -  
Max Temperature 60 °F 62 °F 80 °F (2003)
Min Temperature 41 °F 41 °F 28 °F (2000)
Degree Days  
Heating Degree Days 14    
Moisture  
Dew Point 36 °F    
Average Humidity 64    
Maximum Humidity 94    
Minimum Humidity 32    
Precipitation  
Precipitation 0.00 in - - ()
Sea Level Pressure  
Sea Level Pressure 30.10 in    
Wind  
Wind Speed 6 mph (North)    
Max Wind Speed 13 mph    
Max Gust Speed 18 mph    
Visibility 10 miles    
Events      
Averages and records for this station are not official NWS values.
T = Trace of Precipitation, MM = Missing Value Source: NWS Daily Summary

Daily Weather History Graph

Daily Weather History Graph

Search for Another Location

Airport or City:

Trip Planner

Search our weather history database for the weather conditions in past years. The results will help you decide how hot, cold, wet, or windy it might be!

Date:

Astronomy

Nov. 21, 2012 Rise Set
Actual Time 6:53 AM EST 5:02 PM EST
Civil Twilight 6:25 AM EST 5:29 PM EST
Nautical Twilight 5:54 AM EST 6:00 PM EST
Astronomical Twilight 5:24 AM EST 6:30 PM EST
Moon 1:05 PM EST (11/21) 12:23 AM EST (11/21)
Length of Visible Light 11h 03m
Length of Day
10h 08m
First Quarter, 61% of the Moon is Illuminated
Nov 21
First Quarter
Nov 28
Full
Dec 6
Last Quarter
Dec 13
New
Dec 20
First Quarter

Hourly Weather History & Observations

Time (EST) Temp. Windchill Dew Point Humidity Pressure Visibility Wind Dir Wind Speed Gust Speed Precip Events Conditions
12:55 AM 45.7 °F 43.4 °F 43.3 °F 92% 30.08 in 10.0 mi North 4.6 mph - N/A   Clear
1:55 AM 45.0 °F 43.5 °F 43.0 °F 93% 30.07 in 10.0 mi North 3.5 mph - N/A   Clear
2:55 AM 44.2 °F 42.7 °F 42.6 °F 94% 30.07 in 10.0 mi North 3.5 mph - N/A   Clear
4:55 AM 43.3 °F 39.2 °F 41.4 °F 93% 30.07 in 10.0 mi North 6.9 mph - N/A   Clear
5:55 AM 42.4 °F 40.7 °F 40.5 °F 93% 30.09 in 10.0 mi North 3.5 mph - N/A   Clear
6:55 AM 41.9 °F 39.0 °F 40.1 °F 93% 30.10 in 10.0 mi North 4.6 mph - N/A   Clear
7:55 AM 43.0 °F 39.5 °F 40.8 °F 92% 30.11 in 10.0 mi North 5.8 mph - N/A   Clear
8:55 AM 46.4 °F 41.9 °F 40.3 °F 79% 30.13 in 10.0 mi North 9.2 mph - N/A   Clear
9:55 AM 50.2 °F - 39.4 °F 66% 30.13 in 10.0 mi NNE 12.7 mph 18.4 mph N/A   Clear
11:55 AM 56.5 °F - 37.6 °F 49% 30.10 in 10.0 mi North 10.4 mph - N/A   Clear
12:55 PM 58.8 °F - 29.1 °F 32% 30.09 in 10.0 mi North 11.5 mph - N/A   Clear
1:55 PM 59.7 °F - 31.5 °F 34% 30.08 in 10.0 mi North 11.5 mph - N/A   Clear
2:55 PM 60.1 °F - 32.2 °F 35% 30.07 in 10.0 mi NNE 6.9 mph - N/A   Clear
3:55 PM 58.8 °F - 31.3 °F 35% 30.08 in 10.0 mi North 10.4 mph - N/A   Clear
4:55 PM 55.8 °F - 32.0 °F 41% 30.09 in 10.0 mi NNE 5.8 mph - N/A   Clear
5:55 PM 52.9 °F - 32.4 °F 46% 30.11 in 10.0 mi North 4.6 mph - N/A   Clear
6:55 PM 51.3 °F - 32.0 °F 48% 30.13 in 10.0 mi NNE 4.6 mph - N/A   Clear
7:55 PM 49.3 °F - 32.2 °F 52% 30.14 in 10.0 mi North 4.6 mph - N/A   Clear
8:55 PM 47.8 °F - 31.6 °F 53% 30.14 in 10.0 mi North 4.6 mph - N/A   Clear
9:55 PM 46.6 °F - 32.0 °F 57% 30.15 in 10.0 mi NNE 4.6 mph - N/A   Clear
10:55 PM 45.0 °F 41.8 °F 33.3 °F 64% 30.14 in 10.0 mi North 5.8 mph - N/A   Clear
11:55 PM 44.2 °F 40.3 °F 34.0 °F 67% 30.14 in 10.0 mi North 6.9 mph - N/A   Clear